STARLINK-30912, 58422

Orbit data source: Space-Track

STARLINK-30912, 58422 is a payload satellite owned by SpaceX/Seattle (US) in LEO that was launched on Wed, 22 Nov 2023 UTC via an FALCON 9 launch vehicle from the Air Force Eastern Test Range (AFETR). Payload-class satellites include a variety of spacecraft equipped with specific instruments for various scientific and technological missions. These include communications satellites like Starlink; space stations such as the ISS; scientific satellites like the Hubble; Earth observation satellites from companies like Planet Labs, Umbra, and HawkEye 360; GPS; miniature CubeSats for education and research; and military/defense satellites.

Loading next visibility...
Identifier
58422, 2023-180W
Orbit
LEO
Country
Flag of USUS
Related business
Manufacturer
SpaceX/Seattle
Mission
Operational Commercial Communications
Bus & Motor
STARLINK V2M, Unknown motor
Mass
730 kg wet, ~700 kg dry
Launch date (UTC)
2023-11-22 (3 years ago)
Launch vehicle
FALCON 9
Launch site
Air Force Eastern Test Range (AFETR)
Object type
Payload
Rocket body
Debris
Shape & HBR
Box + 2 Pan, 17.7 m
Radar Cross Section
33.884 m², Large (>1 m²)

Expand to show TLE details & history
Last TLE update: 2 days ago

TLE from 2 days ago
0 STARLINK-30912
1 58422U 23180W   26170.99273725  .00000503  00000-0  27804-4 0  9998
2 58422  43.0061  52.5441 0001671 253.9343 106.1325 15.27574889144948
Epoch: 2026-06-19T23:49Z
TLE epoch observation values (Epoch: 2026-06-19T23:49:32.498Z)
Latitude
-0°
Longitude
146.94494°
Altitude
483.159 km
Speed
7.625 km/s
True Right ascension
03h 30m 10s
True Declination
0° 00' 00"
Sunlit
Object was in daylight at epoch
Visualization orbit readout
Latitude
Unknown
Longitude
Unknown
Altitude
Unknown
Speed
Unknown
Apparent Right ascension
Unknown
Apparent Declination
Unknown
Sunlit
N/A
Visualization observer readout
Local Sidereal Time
21:32:40
Azimuth
Unknown
Elevation
Unknown
Doppler factor
Unknown
Orbital elements
Apogee altitude
486.155 km
Perigee altitude
483.862 km
Semi-major axis
6,863.146 km
Eccentricity
0.00017
Inclination
43.0061°
RAAN
52.5441°
Arg. of periapsis
253.9343°
True anomaly
106.15089°
Mean anomaly
106.1325°
Eccentric anomaly
106.1417°
Mean motion
3.81732 °/min
Orbital period
94.31 mins
BSTAR
0.000027804
Loading maneuver chart data...
Computing Atmospheric mass density...
Loading historical data...
Loading historical data...
Loading historical data...
Loading historical data...
Loading historical data...
Loading historical data...
Loading historical data...

Documentation

Showing up to 5 results
|